Regional Weather Roundup
Issued by NWS

Home | Current Version | Previous Version | Graphics & Text | Print | Product List | Glossary On
Versions: 1 2 3 4 5 6 7 8 9 10 11 12 13 14 15 16 17 18 19 20 21 22 23 24 25 26 27 28 29 30 31 32 33 34 35 36 37 38 39 40 41 42 43 44 45 46 47 48 49 50
520
ASUS43 KLMK 270802
RWRKY
KENTUCKY REGIONAL WEATHER ROUNDUP
NATIONAL WEATHER SERVICE LOUISVILLE KY
400 AM EDT WED JUL 27 2016

NOTE "FAIR" INDICATES FEW OR NO CLOUDS BELOW 12,000 FEET
WITH NO SIGNIFICANT WEATHER AND/OR OBSTRUCTIONS TO VISIBILITY.

KYZ001>023-026-027-061>063-070>075-270900-
WESTERN AND SOUTH CENTRAL KENTUCKY

CITY           SKY/WX    TMP DP  RH WIND       PRES   REMARKS
PADUCAH        PTCLDY    75  72  90 CALM      29.96S FOG
HENDERSON      CLOUDY    73  70  88 CALM      29.95F VSB 1/4
OWENSBORO      PTCLDY    76  76 100 CALM      29.97S FOG
HOPKINSVILLE   PTCLDY    76  75  94 CALM      29.96F
BOWLING GREEN  MOCLDY    80  76  87 CALM      29.97F
GLASGOW        NOT AVBL
$$

KYZ024-025-028>034-038-045-046-053-270900-
NORTH CENTRAL KENTUCKY

CITY           SKY/WX    TMP DP  RH WIND       PRES   REMARKS
LOUISVILLE/SDF PTCLDY    77  72  84 NE3       29.97F
LOUISVILLE/LOU CLEAR     76  71  85 CALM      29.98F
FORT KNOX      CLEAR     72  72  98 N1        29.98R FOG
$$

KYZ035>037-039>044-047>052-055>060-089>105-270900-
NORTHEAST KENTUCKY

CITY           SKY/WX    TMP DP  RH WIND       PRES   REMARKS
LEXINGTON      CLEAR     74  71  91 CALM      30.01R
COVINGTON      CLOUDY    74  73  97 CALM      30.00S FOG
FRANKFORT      PTCLDY    73  71  93 N3        29.99S FOG
$$

KYZ054-064>069-076>088-106>120-270900-
SOUTHEAST KENTUCKY

CITY           SKY/WX    TMP DP  RH WIND       PRES   REMARKS
JACKSON        CLEAR     74  71  91 CALM      30.03R
LONDON         PTCLDY    75  71  87 CALM      30.02S
SOMERSET       NOT AVBL
MIDDLESBORO    CLOUDY    73  72  97 CALM      30.03S
MONTICELLO     MOSUNNY  N/A N/A N/A NE8       30.02S
$$





USA.gov is the U.S. government's official web portal to all federal, state and local government web resources and services.